STARLINK-1679, 46557

Orbit data source: Space-Track

STARLINK-1679, 46557 is a payload satellite owned by SpaceX/Seattle (US) in LEO that was launched on Tue, 06 Oct 2020 UTC via an FALCON 9 launch vehicle from the Air Force Eastern Test Range (AFETR). Payload-class satellites include a variety of spacecraft equipped with specific instruments for various scientific and technological missions. These include communications satellites like Starlink; space stations such as the ISS; scientific satellites like the Hubble; Earth observation satellites from companies like Planet Labs, Umbra, and HawkEye 360; GPS; miniature CubeSats for education and research; and military/defense satellites.

Loading next visibility...
Identifier
46557, 2020-070AB
Orbit
LEO
Country
Flag of USUS
Related business
Manufacturer
SpaceX/Seattle
Mission
Operational Commercial Communications
Bus & Motor
STARLINK, Unknown motor
Mass
260 kg wet, ~248 kg dry
Launch date (UTC)
2020-10-06 (5 years ago)
Launch vehicle
FALCON 9
Launch site
Air Force Eastern Test Range (AFETR)
Object type
Payload
Rocket body
Debris
Shape & HBR
Box + 1 Pan, 4.4 m
Radar Cross Section
13.562 m², Large (>1 m²)

Expand to show TLE details & history
Last TLE update: 17 hours ago

TLE from 17 hours ago
0 STARLINK-1679
1 46557U 20070AB  25261.02919043  .00000648  00000-0  62361-4 0  9990
2 46557  53.0529 216.0960 0001669  81.8979 278.2199 15.06410088273701
Epoch: 2025-09-18T00:42Z
TLE epoch observation values (Epoch: 2025-09-18T00:42:02.053Z)
Latitude
-0.00003°
Longitude
-151.60923°
Altitude
547.895 km
Speed
7.589 km/s
True Right ascension
14h 24m 23s
True Declination
0° 00' 00"
Sunlit
Object was in daylight at epoch
Visualization orbit readout
Latitude
Unknown
Longitude
Unknown
Altitude
Unknown
Speed
Unknown
Apparent Right ascension
Unknown
Apparent Declination
Unknown
Sunlit
N/A
Visualization observer readout
Local Sidereal Time
10:40:02
Azimuth
Unknown
Elevation
Unknown
Doppler factor
Unknown
Orbital elements
Apogee altitude
548.607 km
Perigee altitude
546.296 km
Semi-major axis
6,925.589 km
Eccentricity
0.00017
Inclination
53.0529°
RAAN
216.096°
Arg. of periapsis
81.8979°
True anomaly
278.20097°
Mean anomaly
278.2199°
Eccentric anomaly
278.21044°
Mean motion
3.76581 °/min
Orbital period
95.6 mins
BSTAR
0.000062361
Loading maneuver chart data...
Computing Atmospheric mass density...
Loading historical data...
Loading historical data...
Loading historical data...
Loading historical data...
Loading historical data...
Loading historical data...
Loading historical data...

Documentation

Showing up to 5 results
|